Location: Znojmo
(48.8500°N, 16.0500°E)
Time: 22:08:39
(UTC+02:00)

ISS - Pass Details

Date: 02 April 2019
Orbit: 408 x 410 km, 51.6° (Epoch: 22 April)

Event Time Altitude Azimuth Distance (km) Brightness Sun altitude
Rises 20:56:15 0° 290° (WNW) 2,340 1.9 -14.7°
Reaches altitude 10° 20:58:20 10° 290° (WNW) 1,476 0.4 -15.0°
Maximum altitude 21:01:39 88° 211° (SSW) 414 -3.9 -15.5°
Enters shadow 21:02:45 39° 113° (ESE) 626 -3.4 -15.7°
